Погода в Войтовцах

Украина / Хмельницкая область     49°29′53″N   26°26′33″E
темп.,
°C
ветер,
м/с
пор.,
м/с
влажн.,
%
обл.,
%
осадки,
мм/ч
давл.,
гПа
погр.,
м
21 апреля, ср
ср2100:00+6ссз2486100 0.0 101283
03:00+5зсз349099 0.1 101279
06:00+4сз349457 0.1 101277
09:00+7зсз3480100 0.1 1014389
12:00+11зсз3561100 0.8 10131476
15:00+12зюз345653 1.6 10131269
18:00+12зюз356166 1.0 10131158
21:00+9юз337657 1.3 101430
22 апреля, чт
чт2200:00+7юз378477 0.3 1015129
03:00+7зюз3108599 0.3 1015274
06:00+6юз37915 0.0 1015142
09:00+11юз610696 0.0 1015639
12:00+13з696383 0.4 10151411
15:00+14зюз71057100 1.7 10141772
18:00+14юз356091 1.1 10131167
21:00+8з248849 2.4 1015108
23 апреля, пт
пт2300:00+5сз5991100 0.6 1017434
03:00+5зсз3789100 1.5 1017434
06:00+3з3690100 0.0 1018232
09:00+5зсз4672100 0.0 1018474
12:00+7зсз465592 0.0 10181654
15:00+9зсз7945100 0.4 10172140
18:00+8сз794947 0.0 10171837
21:00+4з22771 0.3 101830
24 апреля, сб
сб2400:00+3з51075100 0.0 1019436
03:00+2з6118542 0.2 1019749
06:000зсз6128623 0.0 1020716
09:00+3зсз8116453 0.0 10201174
12:00+6сз81044100 0.1 10212438
15:00+7зсз81046100 0.6 10202084
18:00+6з7105397 0.6 10201806
21:00+3з4106798 0.8 1021291
25 апреля, вс
вс2500:00+1з410763 0.0 1022264
03:000з3883100 0.0 1022144
06:00+1з4986100 0.0 1021302
09:00+3зсз687227 0.0 1021906
12:00+5зсз694992 0.1 10212018
15:00+6зсз7947100 0.1 10202063
18:00+6сз694970 0.2 10201946
21:00+2зсз356899 0.2 1021115